[[{"header":{"parameterUnit":"m.s-1","parameterCategory":2,"la1":30.2991,"la2":30.254,"lo1":-89.0895,"lo2":-89.0444,"dy":0.0017,"dx":0.0017,"nx":28,"ny":28,"refTime":"2025-11-20T03:00:00:Z","depth":"0","parameterNumber":2,"parameterNumberName":"U-component_of_CURRENTS"},"data":[0,0,0,0,0,0,0,0,0,0,0,0,0,0,0,0,0,0,0,0,0,0,0,0,0,0,0,0,0,0,0,0,0,0,0,0,0,0,0,0,0,0,0,0,0,0,0,0,0,0,0,0,0,0,0,0,0,0,-0.3157,-0.3158,0,-0.3244,-0.3245,-0.3246,-0.3258,-0.3258,-0.3257,-0.3257,-0.3137,-0.3134,-0.3131,0,0,0,0,0,0,0,0,0,0,0,0,0,-0.2863,-0.2869,-0.3157,-0.3158,-0.316,-0.3244,-0.3245,-0.3246,-0.3258,-0.3258,-0.3257,-0.3257,-0.3138,-0.3134,-0.3131,0,0,0,0,0,0,0,0,0,0,0,0,0,-0.2971,-0.2871,-0.3157,-0.3179,-0.3182,-0.3244,-0.3245,-0.3246,-0.3258,-0.3258,-0.3257,-0.3256,-0.3139,-0.3135,-0.313,-0.3119,0,0,-0.3118,-0.3116,0,0,0,0,0,0,0,0,-0.2965,-0.2982,-0.3174,-0.3177,-0.3181,-0.3243,-0.3098,-0.3194,-0.3259,-0.3225,-0.3257,-0.3256,-0.3156,-0.315,-0.3166,-0.3113,-0.3108,-0.3117,-0.3115,-0.3113,-0.3112,0,0,0,0,0,0,0,-0.2958,-0.2977,-0.3188,-0.3176,-0.318,-0.3138,-0.3153,-0.3116,-0.3187,-0.3228,-0.323,-0.3246,-0.3156,-0.317,-0.3163,-0.3106,-0.3118,-0.3114,-0.3111,-0.311,-0.302,-0.3021,0,0,0,0,0,0,-0.2964,-0.2972,-0.3185,-0.3191,-0.3074,-0.3144,-0.3161,-0.3221,-0.3192,-0.3189,-0.3247,-0.3247,-0.3178,-0.3167,-0.3158,-0.3104,-0.3113,-0.3109,-0.3107,-0.302,-0.302,-0.3021,0,0,0,0,0,0,-0.2958,-0.2984,-0.3181,-0.3082,-0.3105,-0.3152,-0.3217,-0.3223,-0.3234,-0.3209,-0.3201,-0.3251,-0.3177,-0.3164,-0.3129,-0.3101,-0.3107,-0.3104,-0.302,-0.302,-0.3021,-0.302,0,0,0,0,0,0,-0.295,-0.2983,-0.3009,-0.3085,-0.3111,-0.3201,-0.3218,-0.3225,-0.3247,-0.3247,-0.321,-0.3199,-0.3175,-0.3136,-0.3125,-0.3095,-0.31,-0.302,-0.302,-0.302,-0.302,-0.302,-0.302,0,0,0,0,0,-0.294,-0.2961,-0.3011,-0.3035,-0.3155,-0.3201,-0.3209,-0.3235,-0.3247,-0.3243,-0.3234,-0.32,-0.3129,-0.3133,-0.312,-0.3088,-0.302,-0.302,-0.302,-0.3019,-0.302,-0.302,0,0,0,0,0,0,-0.2829,-0.2968,-0.3023,-0.3084,-0.314,-0.3204,-0.3196,-0.3234,-0.3231,-0.3221,-0.3203,-0.3191,-0.3144,-0.3128,-0.3132,-0.3067,-0.3068,-0.3066,-0.3071,-0.3071,-0.3072,-0.2998,-0.3097,0,0,0,0,0,-0.283,-0.2881,-0.3004,-0.3037,-0.3075,-0.3143,-0.3161,-0.3193,-0.3211,-0.3211,-0.3198,-0.3173,-0.3139,-0.3116,-0.3082,-0.3049,-0.3006,-0.3022,-0.3023,-0.3023,-0.2957,-0.291,-0.2899,-0.3021,-0.3021,-0.3021,0,0,-0.2784,-0.2869,-0.2893,-0.3016,-0.306,-0.3078,-0.3149,-0.3176,-0.3168,-0.3192,-0.3158,-0.3165,-0.3131,-0.3093,-0.3071,-0.3073,-0.2974,-0.3023,-0.3023,-0.2956,-0.2909,-0.2896,-0.2885,-0.3022,-0.3022,-0.3022,0,0,-0.2698,-0.2813,-0.2824,-0.2877,-0.2963,-0.3013,-0.3025,-0.3108,-0.3123,-0.3128,-0.313,-0.3124,-0.3092,-0.3061,-0.3039,-0.3018,-0.2975,-0.3023,-0.2959,-0.2917,-0.2905,-0.2894,-0.2856,-0.2841,-0.3026,-0.3026,-0.3026,0,-0.2638,-0.2703,-0.2818,-0.2837,-0.2865,-0.298,-0.2978,-0.3007,-0.3059,-0.306,-0.3103,-0.3064,-0.3061,-0.2981,-0.299,-0.3009,-0.2982,-0.2964,-0.2913,-0.2901,-0.289,-0.2853,-0.2837,-0.3026,-0.3026,-0.3026,-0.3026,0,-0.2569,-0.2617,-0.2617,-0.2697,-0.2729,-0.275,-0.2833,-0.2857,-0.2916,-0.295,-0.2925,-0.2951,-0.2925,-0.2943,-0.2958,-0.2877,-0.2886,-0.2919,-0.2906,-0.2876,-0.2842,-0.2825,-0.3026,-0.3026,-0.3026,-0.3026,0,0,-0.2471,-0.2559,-0.2562,-0.2589,-0.2675,-0.2704,-0.2688,-0.2729,-0.2731,-0.2773,-0.2758,-0.2739,-0.2787,-0.2763,-0.2798,-0.2768,-0.2714,-0.2809,-0.2807,-0.2757,-0.2614,-0.2522,-0.2495,-0.2747,-0.2743,-0.274,-0.2634,0,-0.2395,-0.2403,-0.2462,-0.2449,-0.2477,-0.2564,-0.2551,-0.2586,-0.2642,-0.2658,-0.2674,-0.2673,-0.2707,-0.2733,-0.2696,-0.2726,-0.2663,-0.2738,-0.2658,-0.2654,-0.2564,-0.2469,-0.2374,-0.226,-0.2617,-0.2614,-0.2612,0,-0.233,-0.2357,-0.2338,-0.2392,-0.2412,-0.2402,-0.2447,-0.2454,-0.2482,-0.2527,-0.2513,-0.2556,-0.2515,-0.258,-0.2505,-0.2559,-0.2547,-0.2557,-0.2555,-0.2433,-0.2526,-0.2341,-0.2216,-0.2213,-0.2586,-0.2588,-0.259,0,-0.2249,-0.228,-0.2268,-0.2285,-0.2345,-0.2338,-0.2367,-0.2402,-0.2423,-0.2442,-0.247,-0.2427,-0.245,-0.2399,-0.243,-0.2471,-0.2354,-0.2431,-0.2301,-0.2298,-0.217,-0.2159,-0.2002,-0.2302,-0.2302,-0.2302,-0.2302,0,-0.2184,-0.2177,-0.2234,-0.2233,-0.2223,-0.2284,-0.2277,-0.2308,-0.2346,-0.2353,-0.2395,-0.2386,-0.2407,-0.2375,-0.237,-0.2265,-0.2296,-0.2216,-0.2231,-0.2174,-0.2165,-0.2121,-0.2169,-0.2298,-0.2299,-0.23,-0.2301,0,-0.2094,-0.2133,-0.213,-0.2177,-0.2186,-0.2181,-0.223,-0.2236,-0.2287,-0.2298,-0.2303,-0.2345,-0.229,-0.2274,-0.2227,-0.2192,-0.2067,-0.2063,-0.1992,-0.1995,-0.1858,-0.191,-0.1719,-0.1668,-0.1881,-0.1877,-0.1875,0,-0.2044,-0.2036,-0.2074,-0.2071,-0.2086,-0.21,-0.2111,-0.2183,-0.2201,-0.2262,-0.2256,-0.2229,-0.2166,-0.2042,-0.1969,-0.1853,-0.1905,-0.1724,-0.175,-0.1754,-0.1827,-0.1887,-0.1865,-0.1615,-0.161,-0.1607,-0.1603,0,-0.1943,-0.196,-0.1961,-0.1965,-0.1972,-0.1986,-0.2014,-0.2027,-0.2116,-0.2121,-0.2108,-0.2057,-0.1942,-0.178,-0.1651,-0.1592,-0.1678,-0.1636,-0.1652,-0.156,-0.1599,-0.1593,-0.1812,-0.1568,-0.1572,-0.1575,-0.1576,-0.1578,-0.1852,-0.1834,-0.1843,-0.1833,-0.1848,-0.1851,-0.182,-0.1863,-0.186,-0.181,-0.1905,-0.1741,-0.1681,-0.1458,-0.1393,-0.128,-0.1372,-0.1269,-0.1323,-0.1376,-0.1319,-0.1439,-0.1211,-0.1213,-0.1214,-0.1215,-0.1216,0,-0.1729,-0.172,-0.1711,-0.1699,-0.1667,-0.1719,-0.173,-0.166,-0.1598,-0.1519,-0.1457,-0.1338,-0.1218,-0.116,-0.1085,-0.1018,-0.1027,-0.1018,-0.1098,-0.1084,-0.1178,-0.1158,-0.0892,-0.0892,-0.0892,-0.0892,-0.0892,-0.0892,-0.1659,-0.1603,-0.1603,-0.1508,-0.1502,-0.1427,-0.1401,-0.1295,-0.119,-0.0959,-0.081,-0.0728,-0.0861,-0.1045,-0.0998,-0.0942,-0.096,-0.0909,-0.0962,-0.1076,-0.1106,-0.1135,-0.1123,-0.0855,-0.0855,-0.0821,-0.0821,-0.0821]},{"header":{"parameterUnit":"m.s-1","parameterCategory":2,"la1":30.2991,"la2":30.254,"lo1":-89.0895,"lo2":-89.0444,"dy":0.0017,"dx":0.0017,"nx":28,"ny":28,"refTime":"2025-11-20T03:00:00:Z","depth":"0","parameterNumber":3,"parameterNumberName":"V-component_of_CURRENTS"},"data":[0,0,0,0,0,0,0,0,0,0,0,0,0,0,0,0,0,0,0,0,0,0,0,0,0,0,0,0,0,0,0,0,0,0,0,0,0,0,0,0,0,0,0,0,0,0,0,0,0,0,0,0,0,0,0,0,0,0,-0.0046,-0.0044,0,0.0217,0.0221,0.0224,0.0413,0.0414,0.0415,0.0417,0.0722,0.0729,0.0736,0,0,0,0,0,0,0,0,0,0,0,0,0,-0.0297,-0.0293,-0.0046,-0.0044,-0.0041,0.0217,0.0221,0.0225,0.0413,0.0414,0.0416,0.0417,0.072,0.0728,0.0736,0,0,0,0,0,0,0,0,0,0,0,0,0,-0.0122,-0.0292,-0.0047,0.0081,0.0095,0.0216,0.0221,0.0226,0.0413,0.0414,0.0416,0.0418,0.0717,0.0727,0.0738,0.0768,0,0,0.077,0.0775,0,0,0,0,0,0,0,0,-0.0133,-0.0113,0.0059,0.0072,0.0088,0.028,0.0245,0.0408,0.0412,0.0296,0.0417,0.0419,0.0574,0.0597,0.0648,0.0782,0.0795,0.0771,0.0777,0.0782,0.0785,0,0,0,0,0,0,0,-0.0145,-0.0123,0.0062,0.0062,0.008,0.0156,0.0182,0.0277,0.0426,0.0307,0.032,0.0342,0.0583,0.0637,0.0656,0.08,0.0771,0.078,0.0786,0.0791,0.1005,0.1005,0,0,0,0,0,0,-0.0192,-0.0135,0.0054,0.007,-0.0025,0.0158,0.0188,0.022,0.0425,0.0456,0.034,0.035,0.0618,0.0644,0.0668,0.069,0.0782,0.0792,0.0798,0.1006,0.1005,0.1004,0,0,0,0,0,0,-0.0198,-0.0178,0.0043,-0.003,0.0003,0.016,0.0195,0.0225,0.0279,0.0449,0.0483,0.0363,0.062,0.0653,0.0731,0.0705,0.0796,0.0806,0.1007,0.1006,0.1005,0.0752,0,0,0,0,0,0,-0.0207,-0.0181,-0.0178,-0.0033,0.0005,0.0095,0.0194,0.0228,0.0287,0.0303,0.0479,0.051,0.0624,0.0714,0.0741,0.0721,0.0814,0.1007,0.1006,0.1005,0.0761,0.0742,0.0726,0,0,0,0,0,-0.0216,-0.0223,-0.0179,-0.0157,0.0006,0.0093,0.0119,0.024,0.0286,0.0297,0.0407,0.0505,0.0727,0.0721,0.0754,0.0735,0.1008,0.1006,0.1005,0.0769,0.0746,0.0727,0,0,0,0,0,0,-0.0321,-0.02,-0.015,-0.0116,-0.003,0.0123,0.0143,0.0219,0.0317,0.0328,0.0488,0.0525,0.0592,0.0696,0.0685,0.0798,0.0888,0.0892,0.0697,0.0677,0.066,0.0647,0.0823,0,0,0,0,0,-0.035,-0.0325,-0.0199,-0.0175,-0.0142,-0.0008,0.0041,0.0117,0.0224,0.0271,0.0391,0.0515,0.0612,0.0665,0.0776,0.0822,0.0902,0.0839,0.0821,0.0805,0.0819,0.0863,0.085,0.1,0.1,0.1,0,0,-0.0383,-0.0317,-0.0299,-0.0198,-0.012,-0.0084,0.0027,0.0082,0.0113,0.0285,0.0352,0.0459,0.0612,0.0672,0.0711,0.0752,0.0803,0.0803,0.0788,0.0812,0.086,0.0845,0.0832,0.0999,0.0999,0.0999,0,0,-0.0442,-0.0384,-0.0381,-0.0328,-0.0236,-0.0157,-0.0155,-0.0021,0.0038,0.0109,0.0233,0.0314,0.0476,0.0569,0.0638,0.0593,0.071,0.0629,0.0527,0.0566,0.0554,0.0543,0.0602,0.0599,0.0616,0.0616,0.0615,0,-0.0484,-0.0453,-0.037,-0.0358,-0.0322,-0.0205,-0.0195,-0.0131,0.001,0.005,0.0102,0.0315,0.0432,0.0501,0.0491,0.0552,0.0597,0.0579,0.0538,0.053,0.0524,0.0587,0.0586,0.0603,0.0605,0.0606,0.0607,0,-0.0529,-0.0511,-0.0513,-0.0456,-0.0419,-0.0396,-0.0304,-0.0265,-0.0186,-0.01,-0.0014,0.013,0.0267,0.0297,0.0387,0.04,0.0453,0.0502,0.0572,0.0492,0.0565,0.0569,0.0586,0.059,0.0594,0.0597,0,0,-0.0581,-0.0548,-0.0546,-0.0537,-0.0467,-0.0433,-0.0422,-0.0347,-0.0318,-0.0219,-0.0165,-0.0034,0.0051,0.0136,0.0237,0.0266,0.0252,0.0348,0.0356,0.0375,0.0339,0.0399,0.0411,0.0268,0.0268,0.0268,0.0398,0,-0.0626,-0.0642,-0.0605,-0.0615,-0.0609,-0.0533,-0.0522,-0.0457,-0.0372,-0.03,-0.0191,-0.0094,-0.0017,0.0044,0.0074,0.0243,0.0256,0.0214,0.0447,0.0455,0.0489,0.0415,0.045,0.057,0.0403,0.0404,0.0405,0,-0.0661,-0.0667,-0.0694,-0.0677,-0.0666,-0.0663,-0.0609,-0.0579,-0.0483,-0.0415,-0.0335,-0.0222,-0.0131,-0.0067,0.0107,0.007,0.018,0.0279,0.0286,0.0443,0.0522,0.0634,0.0586,0.07,0.0413,0.0412,0.0412,0,-0.0717,-0.0718,-0.0744,-0.0739,-0.0711,-0.0712,-0.0689,-0.0614,-0.0578,-0.0484,-0.0429,-0.0318,-0.0214,-0.0105,0.0121,0.0105,0.0314,0.0329,0.0471,0.0478,0.0613,0.0631,0.0684,0.0407,0.0406,0.0406,0.0406,0,-0.0762,-0.0778,-0.0776,-0.0789,-0.0812,-0.0772,-0.0767,-0.0723,-0.0652,-0.0596,-0.0491,-0.0402,-0.0223,-0.0065,0.0087,0.0315,0.0292,0.0453,0.0508,0.0526,0.0535,0.0732,0.0775,0.0411,0.041,0.0409,0.0408,0,-0.081,-0.0809,-0.0837,-0.0838,-0.084,-0.0855,-0.0828,-0.0813,-0.074,-0.0662,-0.0636,-0.0451,-0.0234,-0.0046,0.0196,0.0311,0.0586,0.0576,0.0597,0.065,0.0857,0.0886,0.1048,0.1136,0.0731,0.0733,0.0734,0,-0.0833,-0.0857,-0.0883,-0.0906,-0.0908,-0.092,-0.0924,-0.0867,-0.0832,-0.0666,-0.0622,-0.0409,-0.0204,0.0162,0.0381,0.063,0.0714,0.0789,0.0757,0.0869,0.0941,0.0955,0.1018,0.0836,0.0839,0.0841,0.0843,0,-0.0874,-0.0885,-0.091,-0.0967,-0.0987,-0.0998,-0.0988,-0.0968,-0.0865,-0.0736,-0.0513,-0.0337,-0.0004,0.0319,0.0601,0.0743,0.0872,0.0837,0.0948,0.102,0.1048,0.116,0.0763,0.0861,0.0859,0.0857,0.0857,0.0856,-0.0894,-0.093,-0.0968,-0.1014,-0.1042,-0.1046,-0.1002,-0.0918,-0.0792,-0.0501,-0.0383,0.0028,0.0263,0.0686,0.0828,0.1092,0.1049,0.1171,0.1196,0.12,0.1276,0.092,0.1078,0.1077,0.1077,0.1076,0.1076,0,-0.0913,-0.0954,-0.1009,-0.1055,-0.1082,-0.1083,-0.1011,-0.0874,-0.0632,-0.0325,-0.0003,0.0502,0.0794,0.1021,0.129,0.1437,0.1462,0.1511,0.1532,0.158,0.1272,0.1266,0.1478,0.1478,0.1478,0.1478,0.1478,0.1478,-0.0922,-0.0979,-0.1013,-0.1065,-0.1089,-0.1012,-0.0932,-0.0658,-0.0378,0.0182,0.0635,0.0938,0.1175,0.1462,0.1709,0.1738,0.1874,0.1857,0.1938,0.1708,0.1677,0.1648,0.1653,0.1942,0.1942,0.2246,0.2249,0.2251]}],[{"header":{"parameterUnit":"m.s-1","parameterCategory":2,"la1":30.2991,"la2":30.254,"lo1":-89.0895,"lo2":-89.0444,"dy":0.0017,"dx":0.0017,"nx":28,"ny":28,"refTime":"2025-11-20T03:00:00:Z","depth":"2","parameterNumber":2,"parameterNumberName":"U-component_of_CURRENTS"},"data":[0,0,0,0,0,0,0,0,0,0,0,0,0,0,0,0,0,0,0,0,0,0,0,0,0,0,0,0,0,0,0,0,0,0,0,0,0,0,0,0,0,0,0,0,0,0,0,0,0,0,0,0,0,0,0,0,0,0,-0.2247,-0.2248,0,-0.2268,-0.2268,-0.2268,-0.2236,-0.2235,-0.2234,-0.2233,-0.2328,-0.2331,-0.2335,0,0,0,0,0,0,0,0,0,0,0,0,0,-0.2212,-0.2212,-0.2247,-0.2248,-0.2248,-0.2268,-0.2268,-0.2268,-0.2236,-0.2235,-0.2234,-0.2233,-0.2327,-0.2331,-0.2335,0,0,0,0,0,0,0,0,0,0,0,0,0,-0.2226,-0.2212,-0.2247,-0.2237,-0.2236,-0.2268,-0.2268,-0.2268,-0.2236,-0.2235,-0.2234,-0.2232,-0.2326,-0.2331,-0.2335,-0.2392,0,0,-0.2351,-0.2353,0,0,0,0,0,0,0,0,-0.2226,-0.2227,-0.2238,-0.2238,-0.2237,-0.225,-0.229,-0.2314,-0.2237,-0.2233,-0.2233,-0.2232,-0.2312,-0.2318,-0.232,-0.2396,-0.2401,-0.2351,-0.2354,-0.2356,-0.2358,0,0,0,0,0,0,0,-0.2225,-0.2227,-0.2253,-0.2239,-0.2238,-0.2242,-0.2242,-0.2294,-0.2279,-0.2233,-0.2232,-0.2239,-0.2312,-0.2315,-0.2322,-0.2402,-0.2351,-0.2355,-0.2358,-0.236,-0.2528,-0.2529,0,0,0,0,0,0,-0.2228,-0.2226,-0.2252,-0.2254,-0.2231,-0.2244,-0.2244,-0.2245,-0.2277,-0.228,-0.224,-0.2238,-0.2307,-0.2316,-0.2325,-0.2362,-0.2356,-0.2361,-0.2364,-0.2527,-0.2528,-0.253,0,0,0,0,0,0,-0.2227,-0.2229,-0.2251,-0.2242,-0.2246,-0.2246,-0.2248,-0.2246,-0.2253,-0.2281,-0.2285,-0.2249,-0.2306,-0.2318,-0.2374,-0.2366,-0.2363,-0.2368,-0.2525,-0.2527,-0.2529,-0.2456,0,0,0,0,0,0,-0.2225,-0.2229,-0.2232,-0.2243,-0.2247,-0.2261,-0.2249,-0.2248,-0.2261,-0.2257,-0.2291,-0.2297,-0.2306,-0.2366,-0.2379,-0.2373,-0.2372,-0.2523,-0.2526,-0.2528,-0.2457,-0.2456,-0.2455,0,0,0,0,0,-0.2224,-0.2232,-0.2232,-0.2235,-0.225,-0.2262,-0.2263,-0.2258,-0.2262,-0.226,-0.2292,-0.2296,-0.2392,-0.2372,-0.2386,-0.2381,-0.2522,-0.2525,-0.2528,-0.2457,-0.2456,-0.2455,0,0,0,0,0,0,-0.2215,-0.223,-0.223,-0.2241,-0.2247,-0.2257,-0.2262,-0.2269,-0.2292,-0.2298,-0.2322,-0.2332,-0.2372,-0.2408,-0.2384,-0.2443,-0.2456,-0.2463,-0.2398,-0.2397,-0.2396,-0.2363,-0.2376,0,0,0,0,0,-0.2218,-0.2225,-0.2238,-0.2245,-0.2252,-0.2263,-0.2271,-0.2271,-0.2294,-0.2301,-0.2327,-0.2367,-0.2399,-0.2421,-0.2457,-0.2503,-0.2493,-0.2512,-0.2511,-0.251,-0.2496,-0.2472,-0.2465,-0.2541,-0.2541,-0.2541,0,0,-0.2215,-0.2226,-0.2228,-0.2244,-0.2251,-0.226,-0.2263,-0.2278,-0.2283,-0.2315,-0.234,-0.2368,-0.2414,-0.2443,-0.2465,-0.2469,-0.2486,-0.2514,-0.2511,-0.2499,-0.2474,-0.2466,-0.2458,-0.2543,-0.2543,-0.2542,0,0,-0.2209,-0.2225,-0.2225,-0.2238,-0.2256,-0.2266,-0.2274,-0.2293,-0.2295,-0.2335,-0.2347,-0.2364,-0.2442,-0.2436,-0.2454,-0.2481,-0.2481,-0.2516,-0.2479,-0.2455,-0.2447,-0.2439,-0.2411,-0.2402,-0.2514,-0.2514,-0.2513,0,-0.22,-0.2205,-0.2226,-0.2235,-0.2244,-0.227,-0.2273,-0.2288,-0.2321,-0.2325,-0.2338,-0.2397,-0.2424,-0.2431,-0.2431,-0.2469,-0.2466,-0.2469,-0.2446,-0.2439,-0.2433,-0.2406,-0.2396,-0.251,-0.2511,-0.2511,-0.2511,0,-0.2191,-0.2202,-0.2208,-0.2223,-0.2238,-0.2248,-0.2274,-0.2291,-0.2312,-0.2319,-0.2337,-0.2361,-0.2387,-0.24,-0.2424,-0.2402,-0.2418,-0.244,-0.2431,-0.2419,-0.2394,-0.2385,-0.2506,-0.2507,-0.2508,-0.2509,0,0,-0.2138,-0.2188,-0.2186,-0.2195,-0.2232,-0.2241,-0.2264,-0.2274,-0.2284,-0.2304,-0.2302,-0.2324,-0.2327,-0.2348,-0.2368,-0.2344,-0.2287,-0.2376,-0.2376,-0.2315,-0.2235,-0.2147,-0.213,-0.2308,-0.2307,-0.2305,-0.2231,0,-0.2113,-0.2126,-0.2158,-0.2169,-0.2178,-0.2218,-0.2235,-0.2256,-0.2278,-0.2291,-0.2291,-0.2307,-0.2314,-0.2325,-0.2296,-0.231,-0.2264,-0.2305,-0.2286,-0.2284,-0.2179,-0.2116,-0.1972,-0.1886,-0.2223,-0.2221,-0.222,0,-0.2075,-0.2094,-0.2101,-0.2145,-0.2151,-0.2164,-0.2191,-0.2213,-0.224,-0.2259,-0.2258,-0.2279,-0.2256,-0.2267,-0.2219,-0.2254,-0.2229,-0.222,-0.2218,-0.215,-0.2179,-0.1959,-0.1858,-0.2206,-0.2207,-0.2208,-0.2209,0,-0.2011,-0.2048,-0.2051,-0.2066,-0.2122,-0.2129,-0.2154,-0.219,-0.2206,-0.2233,-0.2245,-0.2234,-0.223,-0.22,-0.218,-0.2208,-0.2122,-0.216,-0.204,-0.2035,-0.1913,-0.1898,-0.2085,-0.2086,-0.2086,-0.2086,-0.2086,0,-0.1964,-0.1965,-0.2024,-0.2027,-0.2032,-0.2088,-0.2095,-0.2127,-0.2167,-0.2172,-0.2215,-0.2203,-0.2214,-0.2181,-0.2161,-0.2059,-0.2097,-0.2,-0.1994,-0.1887,-0.1871,-0.2162,-0.2172,-0.2083,-0.2084,-0.2084,-0.2085,0,-0.1887,-0.1928,-0.1936,-0.1989,-0.2001,-0.2004,-0.2058,-0.2068,-0.212,-0.2129,-0.2137,-0.217,-0.2117,-0.2102,-0.2053,-0.2014,-0.1947,-0.1896,-0.1764,-0.1742,-0.1885,-0.1893,-0.1755,-0.1751,-0.1747,-0.1744,-0.1742,0,-0.1846,-0.1844,-0.1891,-0.1894,-0.1914,-0.1936,-0.1951,-0.2023,-0.2039,-0.209,-0.2081,-0.2058,-0.1994,-0.1889,-0.1814,-0.1719,-0.1818,-0.1554,-0.1559,-0.1834,-0.1843,-0.1857,-0.1869,-0.1377,-0.1372,-0.1368,-0.1365,0,-0.1763,-0.1782,-0.1791,-0.1802,-0.1816,-0.1834,-0.1863,-0.187,-0.1949,-0.1949,-0.1923,-0.1877,-0.1776,-0.1603,-0.1502,-0.1445,-0.1564,-0.1462,-0.176,-0.1486,-0.1472,-0.1484,-0.1509,-0.1327,-0.133,-0.1333,-0.1335,-0.1337,-0.1687,-0.1675,-0.169,-0.1687,-0.1709,-0.1706,-0.1667,-0.1707,-0.1696,-0.1659,-0.1717,-0.1589,-0.1549,-0.1288,-0.1203,-0.1151,-0.1264,-0.1233,-0.1248,-0.1268,-0.124,-0.122,-0.1022,-0.1024,-0.1026,-0.1028,-0.1029,0,-0.1582,-0.1578,-0.1574,-0.1564,-0.1533,-0.1585,-0.1581,-0.1514,-0.1439,-0.1438,-0.1373,-0.1186,-0.1046,-0.1019,-0.0859,-0.0826,-0.0849,-0.0811,-0.0849,-0.0885,-0.0918,-0.0875,-0.0559,-0.0558,-0.0557,-0.0556,0,0,-0.1524,-0.1478,-0.1476,-0.1382,-0.1372,-0.1273,-0.1234,-0.1159,-0.1117,-0.1005,-0.0937,-0.0974,-0.0972,-0.0769,-0.0715,-0.061,-0.0748,-0.0577,-0.0949,-0.1028,-0.106,-0.1148,-0.112,0,0,0,0,0]},{"header":{"parameterUnit":"m.s-1","parameterCategory":2,"la1":30.2991,"la2":30.254,"lo1":-89.0895,"lo2":-89.0444,"dy":0.0017,"dx":0.0017,"nx":28,"ny":28,"refTime":"2025-11-20T03:00:00:Z","depth":"2","parameterNumber":3,"parameterNumberName":"V-component_of_CURRENTS"},"data":[0,0,0,0,0,0,0,0,0,0,0,0,0,0,0,0,0,0,0,0,0,0,0,0,0,0,0,0,0,0,0,0,0,0,0,0,0,0,0,0,0,0,0,0,0,0,0,0,0,0,0,0,0,0,0,0,0,0,-0.0403,-0.0403,0,-0.0347,-0.0347,-0.0346,-0.0312,-0.0311,-0.0311,-0.031,-0.0156,-0.0152,-0.0148,0,0,0,0,0,0,0,0,0,0,0,0,0,-0.0459,-0.0459,-0.0403,-0.0402,-0.0402,-0.0347,-0.0347,-0.0346,-0.0312,-0.0311,-0.0311,-0.031,-0.0157,-0.0152,-0.0148,0,0,0,0,0,0,0,0,0,0,0,0,0,-0.0425,-0.0459,-0.0404,-0.0376,-0.0373,-0.0347,-0.0347,-0.0346,-0.0312,-0.0311,-0.0311,-0.031,-0.0158,-0.0153,-0.0147,-0.0125,0,0,-0.013,-0.0128,0,0,0,0,0,0,0,0,-0.0427,-0.0423,-0.0381,-0.0378,-0.0374,-0.0333,-0.0309,-0.0266,-0.0312,-0.0338,-0.031,-0.031,-0.0205,-0.0195,-0.0191,-0.0118,-0.0112,-0.013,-0.0126,-0.0124,-0.0122,0,0,0,0,0,0,0,-0.0429,-0.0425,-0.0384,-0.038,-0.0376,-0.0358,-0.0353,-0.0302,-0.0276,-0.0335,-0.0332,-0.0322,-0.0202,-0.0197,-0.0187,-0.0109,-0.013,-0.0125,-0.0121,-0.0119,0.0018,0.0018,0,0,0,0,0,0,-0.0433,-0.0428,-0.0385,-0.0382,-0.0396,-0.0358,-0.0352,-0.0349,-0.0278,-0.0267,-0.0322,-0.032,-0.0207,-0.0194,-0.0181,-0.0134,-0.0124,-0.0119,-0.0116,0.0018,0.0018,0.0018,0,0,0,0,0,0,-0.0434,-0.043,-0.0388,-0.0401,-0.0394,-0.0358,-0.0354,-0.0348,-0.0338,-0.0269,-0.0256,-0.0317,-0.0206,-0.0189,-0.0136,-0.0128,-0.0116,-0.0111,0.0017,0.0018,0.0018,-0.0049,0,0,0,0,0,0,-0.0436,-0.0431,-0.0434,-0.0401,-0.0393,-0.0376,-0.0354,-0.0348,-0.0331,-0.0328,-0.026,-0.0245,-0.0204,-0.0145,-0.0131,-0.012,-0.0107,0.0017,0.0018,0.0018,-0.0048,-0.0051,-0.0055,0,0,0,0,0,-0.0439,-0.0445,-0.0435,-0.043,-0.0398,-0.0376,-0.0371,-0.0344,-0.0332,-0.0332,-0.0285,-0.0247,-0.0131,-0.014,-0.0123,-0.0111,0.0017,0.0018,0.0018,-0.0046,-0.0051,-0.0054,0,0,0,0,0,0,-0.0474,-0.0441,-0.0429,-0.0426,-0.0404,-0.0369,-0.0366,-0.0346,-0.0313,-0.0306,-0.0244,-0.0226,-0.0181,-0.0135,-0.0147,-0.007,-0.005,-0.0046,-0.0104,-0.0108,-0.0112,-0.0115,-0.0102,0,0,0,0,0,-0.0483,-0.0479,-0.0444,-0.0443,-0.0433,-0.0401,-0.0389,-0.0371,-0.0334,-0.032,-0.027,-0.0214,-0.0166,-0.013,-0.0085,-0.0037,0.0005,-0.0017,-0.0021,-0.0024,-0.0015,0.0043,0.0045,0.0021,0.0021,0.0021,0,0,-0.0497,-0.0478,-0.0476,-0.045,-0.0432,-0.0421,-0.0393,-0.0379,-0.0364,-0.0305,-0.0271,-0.0228,-0.0159,-0.0116,-0.0089,-0.0073,0.0003,-0.0024,-0.0027,-0.0016,0.0044,0.0046,0.0048,0.0021,0.0021,0.0021,0,0,-0.0522,-0.0506,-0.051,-0.0493,-0.0465,-0.0441,-0.0437,-0.0401,-0.038,-0.0344,-0.03,-0.0251,-0.0176,-0.0127,-0.0091,-0.0081,-0.0026,-0.0067,-0.0074,-0.0019,-0.0017,-0.0014,0.003,0.0037,-0.0058,-0.0059,-0.0059,0,-0.0541,-0.0539,-0.0509,-0.0506,-0.0494,-0.0451,-0.0451,-0.0423,-0.0374,-0.035,-0.0339,-0.0232,-0.0179,-0.0114,-0.0113,-0.0088,-0.0053,-0.0069,-0.0025,-0.0021,-0.0017,0.0028,0.0036,-0.0062,-0.0061,-0.0061,-0.0061,0,-0.0565,-0.0563,-0.0564,-0.0544,-0.0528,-0.0522,-0.0477,-0.0456,-0.0423,-0.0386,-0.0325,-0.026,-0.0191,-0.017,-0.0135,-0.0079,-0.0064,-0.0048,-0.002,-0.0019,0.0028,0.0039,-0.0066,-0.0065,-0.0064,-0.0063,0,0,-0.0604,-0.0586,-0.0586,-0.0586,-0.0548,-0.0538,-0.0511,-0.0469,-0.0446,-0.039,-0.0351,-0.027,-0.0232,-0.0188,-0.0138,-0.0084,-0.0035,-0.0056,-0.0052,-0.0022,0.0081,0.0095,0.0108,-0.0015,-0.0014,-0.0012,0.0098,0,-0.0632,-0.0646,-0.062,-0.0624,-0.0626,-0.0579,-0.0559,-0.0513,-0.0462,-0.0413,-0.0331,-0.028,-0.0238,-0.0211,-0.0148,-0.0064,-0.0008,-0.0066,0.0085,0.009,0.0096,0.0121,0.0092,0.0189,0.0108,0.011,0.0111,0,-0.0659,-0.0665,-0.0683,-0.0667,-0.0663,-0.0656,-0.0613,-0.0587,-0.0502,-0.0462,-0.0385,-0.0322,-0.0228,-0.0204,-0.0045,-0.0086,-0.0006,0.0059,0.0065,0.0114,0.0125,0.018,0.0211,0.0129,0.0128,0.0126,0.0125,0,-0.0705,-0.0703,-0.0722,-0.0718,-0.0694,-0.069,-0.0672,-0.0605,-0.0578,-0.0491,-0.046,-0.034,-0.0279,-0.0162,-0.002,-0.0033,0.015,0.0149,0.0241,0.0242,0.0269,0.027,0.0261,0.0261,0.0261,0.026,0.026,0,-0.074,-0.0751,-0.0749,-0.076,-0.0777,-0.0741,-0.0735,-0.0695,-0.0631,-0.0589,-0.0491,-0.0427,-0.0265,-0.0139,-0.0021,0.015,0.0155,0.0252,0.028,0.0243,0.024,0.023,0.0225,0.0264,0.0264,0.0263,0.0262,0,-0.0781,-0.0779,-0.0801,-0.0799,-0.0801,-0.0814,-0.0791,-0.0778,-0.0715,-0.0657,-0.0634,-0.0481,-0.0313,-0.0149,0.0054,0.015,0.0303,0.036,0.0301,0.0319,0.0355,0.0346,0.047,0.0471,0.0473,0.0474,0.0475,0,-0.08,-0.082,-0.0843,-0.0864,-0.0866,-0.0877,-0.0883,-0.083,-0.0807,-0.0679,-0.0652,-0.0482,-0.0338,-0.0042,0.0149,0.0359,0.0361,0.0444,0.0419,0.0367,0.0381,0.0369,0.0358,0.0424,0.0425,0.0425,0.0426,0,-0.0836,-0.0847,-0.0868,-0.0922,-0.0943,-0.0957,-0.0955,-0.0947,-0.0865,-0.0794,-0.0658,-0.0532,-0.0247,-0.0009,0.0249,0.0365,0.0405,0.0458,0.0445,0.0367,0.0331,0.0342,0.0331,0.0429,0.0429,0.0428,0.0428,0.0428,-0.0857,-0.0889,-0.0925,-0.0969,-0.1,-0.102,-0.1017,-0.0989,-0.0932,-0.08,-0.0676,-0.0464,-0.0239,0.0134,0.0314,0.0468,0.0467,0.0504,0.05,0.0497,0.0463,0.0431,0.0541,0.0541,0.0541,0.0542,0.0542,0,-0.0878,-0.0916,-0.0968,-0.1016,-0.1051,-0.1056,-0.1048,-0.1009,-0.0931,-0.0793,-0.0639,-0.0364,-0.0102,0.0125,0.0373,0.0521,0.0501,0.0541,0.0486,0.0483,0.0479,0.0442,0.0516,0.0516,0.0517,0.0517,0,0,-0.089,-0.0944,-0.0975,-0.104,-0.1073,-0.1084,-0.1069,-0.0992,-0.0885,-0.0719,-0.0563,-0.0369,-0.0085,0.0085,0.0274,0.0403,0.04,0.041,0.0416,0.0325,0.032,0.0445,0.0382,0,0,0,0,0]}],[{"header":{"parameterUnit":"m.s-1","parameterCategory":2,"la1":30.2991,"la2":30.254,"lo1":-89.0895,"lo2":-89.0444,"dy":0.0017,"dx":0.0017,"nx":28,"ny":28,"refTime":"2025-11-20T03:00:00:Z","depth":"4","parameterNumber":2,"parameterNumberName":"U-component_of_CURRENTS"},"data":[0,0,0,0,0,0,0,0,0,0,0,0,0,0,0,0,0,0,0,0,0,0,0,0,0,0,0,0,0,0,0,0,0,0,0,0,0,0,0,0,0,0,0,0,0,0,0,0,0,0,0,0,0,0,0,0,0,0,-0.1496,-0.1497,0,-0.1519,-0.1519,-0.1519,-0.1528,-0.1528,-0.1528,-0.1528,-0.1562,-0.1562,-0.1563,0,0,0,0,0,0,0,0,0,0,0,0,0,-0.1469,-0.1469,-0.1496,-0.1497,-0.1497,-0.1519,-0.1519,-0.1519,-0.1528,-0.1528,-0.1528,-0.1528,-0.1561,-0.1562,-0.1563,0,0,0,0,0,0,0,0,0,0,0,0,0,-0.1484,-0.1469,-0.1496,-0.1505,-0.1506,-0.1519,-0.1519,-0.1519,-0.1528,-0.1528,-0.1528,-0.1528,-0.1561,-0.1562,-0.1564,-0.157,0,0,-0.1567,-0.1568,0,0,0,0,0,0,0,0,-0.1483,-0.1485,-0.1503,-0.1504,-0.1506,-0.1522,-0.1522,-0.1537,-0.1528,-0.1519,-0.1528,-0.1528,-0.155,-0.1552,-0.1554,-0.1572,-0.1573,-0.1567,-0.1568,-0.1569,-0.1569,0,0,0,0,0,0,0,-0.1482,-0.1484,-0.1504,-0.1504,-0.1505,-0.1511,-0.1513,-0.1525,-0.1533,-0.1519,-0.152,-0.1525,-0.1551,-0.1553,-0.1555,-0.1573,-0.1567,-0.1569,-0.1569,-0.157,-0.1647,-0.1648,0,0,0,0,0,0,-0.1481,-0.1483,-0.1503,-0.1505,-0.1496,-0.1511,-0.1513,-0.1516,-0.1533,-0.1535,-0.1525,-0.1525,-0.1551,-0.1554,-0.1557,-0.1607,-0.1569,-0.157,-0.1571,-0.1645,-0.1647,-0.1648,0,0,0,0,0,0,-0.148,-0.1482,-0.1502,-0.1495,-0.1498,-0.1512,-0.1514,-0.1516,-0.1545,-0.1537,-0.154,-0.1555,-0.1551,-0.1555,-0.1586,-0.1607,-0.1571,-0.1572,-0.1644,-0.1646,-0.1648,-0.1682,0,0,0,0,0,0,-0.1479,-0.1482,-0.1497,-0.1495,-0.1499,-0.1525,-0.1514,-0.1517,-0.1547,-0.1548,-0.1563,-0.1565,-0.1552,-0.1584,-0.1587,-0.1608,-0.1573,-0.1642,-0.1645,-0.1647,-0.1679,-0.1684,-0.1689,0,0,0,0,0,-0.1478,-0.1494,-0.1497,-0.1501,-0.1514,-0.1526,-0.1529,-0.1537,-0.1548,-0.1564,-0.1575,-0.1566,-0.1601,-0.1586,-0.1589,-0.1611,-0.1641,-0.1644,-0.1647,-0.1677,-0.1683,-0.1689,0,0,0,0,0,0,-0.149,-0.1496,-0.15,-0.1517,-0.1529,-0.1528,-0.1548,-0.1557,-0.1579,-0.1589,-0.1582,-0.1585,-0.1614,-0.1616,-0.1599,-0.1642,-0.162,-0.1624,-0.1642,-0.1648,-0.1653,-0.1648,-0.1574,0,0,0,0,0,-0.1499,-0.1514,-0.1518,-0.1536,-0.1544,-0.1555,-0.1567,-0.1574,-0.1586,-0.1597,-0.1609,-0.1621,-0.1624,-0.164,-0.1642,-0.1675,-0.1656,-0.1692,-0.1698,-0.1702,-0.1701,-0.1694,-0.1698,-0.1658,-0.1658,-0.1658,0,0,-0.1509,-0.1516,-0.1525,-0.154,-0.1552,-0.1569,-0.1563,-0.159,-0.161,-0.1598,-0.1641,-0.1639,-0.1636,-0.1659,-0.1674,-0.1668,-0.1703,-0.1706,-0.1709,-0.1706,-0.1697,-0.1701,-0.1704,-0.166,-0.1659,-0.1659,0,0,-0.1525,-0.1544,-0.1557,-0.1572,-0.1595,-0.1601,-0.1617,-0.1635,-0.1652,-0.1686,-0.1674,-0.1685,-0.1715,-0.1702,-0.1701,-0.1742,-0.1723,-0.1758,-0.1789,-0.1783,-0.1785,-0.1788,-0.1759,-0.1759,-0.177,-0.177,-0.177,0,-0.1536,-0.1549,-0.1564,-0.1582,-0.1598,-0.162,-0.1638,-0.166,-0.1688,-0.1701,-0.1708,-0.1731,-0.1727,-0.1736,-0.1748,-0.1751,-0.1744,-0.1762,-0.1788,-0.1789,-0.1791,-0.1761,-0.176,-0.1772,-0.1771,-0.1771,-0.1771,0,-0.1547,-0.1573,-0.1587,-0.1613,-0.1637,-0.1659,-0.1685,-0.1718,-0.1746,-0.1757,-0.1785,-0.1779,-0.1787,-0.1793,-0.1784,-0.1799,-0.1788,-0.1785,-0.1767,-0.1797,-0.1764,-0.1762,-0.1775,-0.1774,-0.1773,-0.1773,0,0,-0.1517,-0.158,-0.1585,-0.1606,-0.1655,-0.1669,-0.1718,-0.1747,-0.1773,-0.1808,-0.1831,-0.1837,-0.1838,-0.1836,-0.1828,-0.183,-0.1827,-0.1825,-0.1824,-0.1788,-0.1807,-0.1674,-0.1659,-0.1839,-0.1839,-0.1839,-0.1775,0,-0.1515,-0.1553,-0.1587,-0.1631,-0.165,-0.1696,-0.1734,-0.1773,-0.1805,-0.1836,-0.1843,-0.1859,-0.1855,-0.1859,-0.1862,-0.1834,-0.1826,-0.1843,-0.1791,-0.1789,-0.166,-0.1654,-0.184,-0.1774,-0.1773,-0.1773,-0.1773,0,-0.1494,-0.1526,-0.1569,-0.1634,-0.1647,-0.1683,-0.1739,-0.1776,-0.1828,-0.1853,-0.1879,-0.1888,-0.1893,-0.1887,-0.1859,-0.1878,-0.1847,-0.1824,-0.1821,-0.1683,-0.1652,-0.1741,-0.1769,-0.1769,-0.1769,-0.177,-0.177,0,-0.1438,-0.1506,-0.1541,-0.1565,-0.1645,-0.1678,-0.172,-0.178,-0.1807,-0.1863,-0.1878,-0.1901,-0.1894,-0.1886,-0.1839,-0.186,-0.1795,-0.1811,-0.1658,-0.1648,-0.1773,-0.1771,-0.1784,-0.1784,-0.1784,-0.1784,-0.1784,0,-0.1398,-0.1428,-0.1524,-0.1542,-0.1585,-0.1654,-0.1698,-0.1744,-0.1804,-0.1817,-0.188,-0.1868,-0.1898,-0.1866,-0.1841,-0.1723,-0.179,-0.1647,-0.1619,-0.1788,-0.1789,-0.177,-0.1769,-0.1782,-0.1782,-0.1783,-0.1783,0,-0.1324,-0.139,-0.1436,-0.153,-0.156,-0.1591,-0.168,-0.1702,-0.1771,-0.1789,-0.1806,-0.184,-0.1787,-0.1784,-0.1739,-0.1685,-0.1613,-0.1555,-0.1713,-0.1698,-0.1475,-0.1477,-0.1385,-0.138,-0.1375,-0.1372,-0.1368,0,-0.1286,-0.1306,-0.1412,-0.1439,-0.1486,-0.1547,-0.158,-0.1671,-0.1687,-0.1741,-0.1726,-0.1712,-0.1713,-0.1528,-0.1557,-0.1481,-0.1464,-0.1428,-0.1474,-0.145,-0.1433,-0.1442,-0.1451,-0.1361,-0.136,-0.1359,-0.1358,0,-0.1211,-0.1265,-0.1303,-0.136,-0.1407,-0.1447,-0.15,-0.1496,-0.1578,-0.166,-0.1581,-0.1539,-0.1466,-0.142,-0.1356,-0.1315,-0.146,-0.1381,-0.1392,-0.1434,-0.142,-0.141,-0.1423,-0.1342,-0.1344,-0.1346,-0.1347,0,-0.1154,-0.1165,-0.1224,-0.1256,-0.1315,-0.1315,-0.1361,-0.136,-0.1382,-0.145,-0.1412,-0.1399,-0.1432,-0.1329,-0.1278,-0.1216,-0.121,-0.1189,-0.121,-0.1227,-0.1206,-0.1167,-0.097,0,0,0,0,0,-0.1089,-0.1084,-0.1111,-0.1136,-0.119,-0.1214,-0.1289,-0.1337,-0.1415,-0.1314,-0.1358,-0.1283,-0.1194,-0.1194,-0.1094,-0.1218,-0.1225,-0.11,-0.1216,-0.1256,-0.1274,-0.1264,0,0,0,0,0,0,-0.1043,-0.1066,-0.107,-0.1026,-0.1015,-0.105,-0.1089,-0.1146,-0.1098,-0.118,-0.1127,-0.1197,-0.1121,-0.1206,-0.1057,-0.1059,-0.1106,-0.1109,-0.1105,-0.1246,-0.1262,-0.1276,-0.1273,0,0,0,0,0]},{"header":{"parameterUnit":"m.s-1","parameterCategory":2,"la1":30.2991,"la2":30.254,"lo1":-89.0895,"lo2":-89.0444,"dy":0.0017,"dx":0.0017,"nx":28,"ny":28,"refTime":"2025-11-20T03:00:00:Z","depth":"4","parameterNumber":3,"parameterNumberName":"V-component_of_CURRENTS"},"data":[0,0,0,0,0,0,0,0,0,0,0,0,0,0,0,0,0,0,0,0,0,0,0,0,0,0,0,0,0,0,0,0,0,0,0,0,0,0,0,0,0,0,0,0,0,0,0,0,0,0,0,0,0,0,0,0,0,0,-0.0338,-0.0337,0,-0.033,-0.033,-0.033,-0.0329,-0.0328,-0.0328,-0.0328,-0.0319,-0.0319,-0.0319,0,0,0,0,0,0,0,0,0,0,0,0,0,-0.0346,-0.0346,-0.0338,-0.0337,-0.0337,-0.033,-0.033,-0.033,-0.0329,-0.0328,-0.0328,-0.0328,-0.0319,-0.0319,-0.0319,0,0,0,0,0,0,0,0,0,0,0,0,0,-0.0343,-0.0346,-0.0338,-0.0334,-0.0333,-0.033,-0.033,-0.033,-0.0329,-0.0328,-0.0328,-0.0328,-0.0319,-0.0319,-0.0319,-0.0322,0,0,-0.0318,-0.0318,0,0,0,0,0,0,0,0,-0.0343,-0.0343,-0.0335,-0.0334,-0.0334,-0.0328,-0.0329,-0.0326,-0.0329,-0.0333,-0.0328,-0.0328,-0.0321,-0.032,-0.0323,-0.0321,-0.0321,-0.0318,-0.0318,-0.0318,-0.0318,0,0,0,0,0,0,0,-0.0343,-0.0343,-0.0337,-0.0334,-0.0334,-0.033,-0.033,-0.0329,-0.033,-0.0332,-0.0332,-0.0327,-0.0321,-0.0323,-0.0322,-0.0321,-0.0318,-0.0318,-0.0318,-0.0318,-0.0316,-0.0316,0,0,0,0,0,0,-0.034,-0.0343,-0.0337,-0.0336,-0.0335,-0.033,-0.033,-0.0332,-0.033,-0.0328,-0.0328,-0.0327,-0.0323,-0.0322,-0.0322,-0.0312,-0.0318,-0.0318,-0.0318,-0.0316,-0.0316,-0.0316,0,0,0,0,0,0,-0.0341,-0.034,-0.0337,-0.0337,-0.0337,-0.033,-0.0332,-0.0332,-0.0335,-0.0326,-0.0325,-0.0331,-0.0323,-0.0322,-0.032,-0.0312,-0.0318,-0.0318,-0.0316,-0.0316,-0.0316,-0.03,0,0,0,0,0,0,-0.0341,-0.034,-0.0347,-0.0337,-0.0336,-0.0338,-0.0332,-0.0332,-0.0332,-0.0331,-0.0329,-0.0328,-0.0323,-0.032,-0.032,-0.0312,-0.0318,-0.0316,-0.0316,-0.0316,-0.03,-0.0299,-0.0298,0,0,0,0,0,-0.0342,-0.035,-0.0348,-0.0347,-0.0344,-0.0338,-0.0338,-0.0334,-0.0332,-0.0336,-0.0331,-0.0328,-0.0321,-0.032,-0.032,-0.0311,-0.0316,-0.0316,-0.0316,-0.0301,-0.0299,-0.0298,0,0,0,0,0,0,-0.0361,-0.035,-0.0348,-0.0354,-0.0348,-0.0338,-0.0343,-0.0337,-0.0337,-0.0338,-0.0329,-0.0327,-0.0326,-0.0323,-0.0323,-0.0312,-0.0318,-0.0318,-0.0306,-0.0305,-0.0304,-0.0291,-0.0317,0,0,0,0,0,-0.0367,-0.0371,-0.0358,-0.0365,-0.0362,-0.0353,-0.0352,-0.0348,-0.0342,-0.0343,-0.0336,-0.0332,-0.0326,-0.0319,-0.0322,-0.0312,-0.0288,-0.0307,-0.0306,-0.0306,-0.0295,-0.0242,-0.0235,-0.0317,-0.0317,-0.0317,0,0,-0.0378,-0.0372,-0.0376,-0.0369,-0.0366,-0.0363,-0.0353,-0.0354,-0.0348,-0.0341,-0.0338,-0.0335,-0.0327,-0.0319,-0.0317,-0.0312,-0.0273,-0.0306,-0.0305,-0.0295,-0.0241,-0.0233,-0.0225,-0.0317,-0.0317,-0.0317,0,0,-0.0396,-0.0395,-0.0402,-0.0396,-0.0388,-0.0378,-0.0378,-0.0367,-0.0361,-0.0356,-0.0348,-0.0329,-0.0333,-0.0308,-0.03,-0.0294,-0.0277,-0.0307,-0.028,-0.0229,-0.0221,-0.0213,-0.0181,-0.0171,-0.0297,-0.0297,-0.0297,0,-0.041,-0.0415,-0.0404,-0.0406,-0.0403,-0.0384,-0.0388,-0.0376,-0.0365,-0.0352,-0.0357,-0.0329,-0.032,-0.0284,-0.0282,-0.0288,-0.0268,-0.0283,-0.0225,-0.0217,-0.021,-0.0178,-0.0167,-0.0296,-0.0296,-0.0296,-0.0296,0,-0.0428,-0.0433,-0.0437,-0.0431,-0.0426,-0.0428,-0.0404,-0.0395,-0.0384,-0.0363,-0.0335,-0.0313,-0.029,-0.0285,-0.0281,-0.0228,-0.0235,-0.0235,-0.0222,-0.02,-0.0169,-0.0157,-0.0295,-0.0295,-0.0295,-0.0296,0,0,-0.0453,-0.0452,-0.0454,-0.0457,-0.044,-0.0439,-0.0422,-0.0396,-0.0381,-0.0352,-0.0324,-0.0289,-0.0267,-0.0255,-0.0238,-0.0184,-0.0117,-0.0188,-0.0186,-0.0146,-0.0016,-0.0048,-0.0039,-0.0108,-0.0106,-0.0105,-0.0018,0,-0.0471,-0.0488,-0.0475,-0.0484,-0.0489,-0.0463,-0.0451,-0.0422,-0.0393,-0.0361,-0.0303,-0.0282,-0.0258,-0.0251,-0.0186,-0.0148,-0.0086,-0.0141,-0.0052,-0.0049,-0.0071,-0.0026,-0.0098,-0.0009,-0.0007,-0.0005,-0.0004,0,-0.0488,-0.0498,-0.0517,-0.0514,-0.0513,-0.0515,-0.0488,-0.0473,-0.0411,-0.0388,-0.0327,-0.0293,-0.0212,-0.0203,-0.0076,-0.0117,-0.006,-0.0017,-0.0013,-0.0037,-0.0059,-0.0035,0.0017,0.0015,0.0014,0.0012,0.0011,0,-0.0514,-0.0522,-0.0542,-0.0543,-0.0536,-0.0538,-0.0531,-0.0485,-0.047,-0.0404,-0.0385,-0.0283,-0.0246,-0.0145,-0.0055,-0.0065,0.0078,0.0074,0.0109,0.0107,0.0101,0.0093,0.0183,0.0183,0.0183,0.0183,0.0182,0,-0.053,-0.0546,-0.0563,-0.0574,-0.0596,-0.0576,-0.0581,-0.0554,-0.0511,-0.0484,-0.0404,-0.036,-0.023,-0.0137,-0.0048,0.0062,0.0091,0.0129,0.0137,0.0102,0.0093,0.0109,0.0099,0.0186,0.0185,0.0184,0.0184,0,-0.0548,-0.056,-0.0587,-0.0602,-0.0612,-0.0629,-0.0631,-0.0625,-0.0582,-0.0544,-0.0527,-0.0412,-0.0291,-0.0163,-0.0007,0.0056,0.0168,0.0201,0.0148,0.0148,0.0161,0.0151,0.0256,0.0256,0.0256,0.0256,0.0256,0,-0.0555,-0.0575,-0.062,-0.0647,-0.0661,-0.0684,-0.0699,-0.0669,-0.0655,-0.0571,-0.0552,-0.0434,-0.0346,-0.0138,-0.0014,0.016,0.018,0.023,0.0215,0.0177,0.0174,0.0164,0.0154,0.0256,0.0256,0.0256,0.0256,0,-0.0568,-0.0594,-0.062,-0.0685,-0.0719,-0.0744,-0.0759,-0.0752,-0.0701,-0.0667,-0.0555,-0.0435,-0.03,-0.0139,-0.0011,0.0114,0.0193,0.0229,0.023,0.0217,0.0177,0.0172,0.0163,0.0255,0.0255,0.0255,0.0255,0,-0.0579,-0.0608,-0.0657,-0.0706,-0.0758,-0.0785,-0.0788,-0.0758,-0.0732,-0.0632,-0.0597,-0.0436,-0.0338,-0.0163,-0.0041,0.0072,0.0101,0.013,0.0137,0.0139,0.0071,0.0,0.0049,0,0,0,0,0,-0.0582,-0.0619,-0.0673,-0.0727,-0.078,-0.0803,-0.0817,-0.0805,-0.076,-0.0684,-0.0634,-0.05,-0.0297,-0.0205,-0.0094,-0.0061,0.0101,0.0068,0.0132,0.0252,0.0253,0.019,0,0,0,0,0,0,-0.0586,-0.064,-0.067,-0.0732,-0.077,-0.0816,-0.0824,-0.0793,-0.0741,-0.0678,-0.0565,-0.0489,-0.0293,-0.0356,-0.0094,-0.006,-0.001,0.0169,0.0171,0.0252,0.0253,0.0253,0.0189,0,0,0,0,0]}]]